Regional Weather Roundup
Issued by NWS Grand Forks, ND

Home | Current Version | Previous Version | Graphics & Text | Print | Product List | Glossary On
Versions: 1 2 3 4 5 6 7 8 9 10 11 12 13 14 15 16 17 18 19 20 21 22 23 24 25 26 27 28 29 30 31 32 33 34 35 36 37 38 39 40 41 42 43 44 45 46 47 48 49 50
849
ASUS43 KFGF 241231
RWRFGF
PRAIRIE TO PINES  WEATHER ROUNDUP
NATIONAL WEATHER SERVICE EASTERN NORTH DAKOTA/GRAND FORKS ND
700 AM CDT SAT JUN 24 2017

 **SATELLITE DATA USED TO AUGMENT SKY COVER AT AUTOMATED STATIONS**
 *****  WEATHER ACROSS EASTERN NORTH DAKOTA  *****

CITY           SKY/WX    TMP DP  RH WIND       PRES   REMARKS
GRAND FORKS    PTSUNNY   51  47  86 NW12      29.98R
6HR MIN TEMP:  47; 6HR MAX TEMP:  55; 6HR PCP: TRACE;

GRAND FRKS AFB LGT RAIN  50  48  93 NW9       29.99S
DEVILS LAKE    PTSUNNY   47  43  86 NW13      30.04R
6HR MIN TEMP:  46; 6HR MAX TEMP:  52;

FARGO          FAIR      52  42  69 W14       30.00R
WAHPETON ARPT  CLOUDY    50  41  71 W10       30.03S
$$

 ***** WEATHER ACROSS CENTRAL AND WESTERN NORTH DAKOTA  *****

CITY           SKY/WX    TMP DP  RH WIND       PRES   REMARKS
BISMARCK       FAIR      50  40  68 NW12      30.15R
6HR MIN TEMP:  47; 6HR MAX TEMP:  53; 6HR PCP: TRACE;

MINOT          CLOUDY    47  41  80 NW14      30.13R
6HR MIN TEMP:  44; 6HR MAX TEMP:  49;

JAMESTOWN      FAIR      48  41  76 NW17G25   30.05S
6HR MIN TEMP:  47; 6HR MAX TEMP:  51;

MINOT AFB      CLOUDY    46  41  83 NW18      30.12R
GARRISON         N/A     44  40  85 NW13      30.14R
WILLISTON      FAIR      47  36  65 NW14      30.23R
6HR MIN TEMP:  45; 6HR MAX TEMP:  52;

DICKINSON      FAIR      43  35  73 NW9       30.19R
6HR MIN TEMP:  40; 6HR MAX TEMP:  47;

HETTINGER      MOCLDY    47  33  58 NW9       30.22R
6HR MIN TEMP:  37; 6HR MAX TEMP:  47;

$$

 *****  OTHER AIRPORT OBSERVATIONS IN OUR AREA  *****

CITY           SKY/WX    TMP DP  RH WIND       PRES   REMARKS
WALHALLA       NOT AVBL
GRAFTON AIRPOR PTSUNNY   52  46  82 NW13      30.00R
VALLEY CITY AR FAIR      48  46  93 NW14G20   30.05S
CANDO          NOT AVBL
CAVALIER APRT  FAIR      52  45  76 W14       29.97S
GWINNER        NOT AVBL
SHEYENNE NWR     N/A     51  42  71 W8        29.95S
ROLLA          NOT AVBL
 ***** THE ABOVE OBSERVATIONS ARE NON NWS ARE NOT QUALITY
       CONTROLLED AND MAY MIS-REPORT RAIN FOR SNOW...
$$

  *****  WEATHER ACROSS NORTHERN MINNESOTA  *****

CITY           SKY/WX    TMP DP  RH WIND       PRES   REMARKS
FLAG ISLAND    FAIR      50  46  87 W14       29.88S
WARROAD        FAIR      46  43  87 W6        29.92S
ROSEAU         PTSUNNY   50  45  81 W9        29.93S
HALLOCK        FAIR      52  46  82 NW12G17   29.96S
THF RVR FALLS  CLOUDY    49  46  90 W9        29.97R
6HR MIN TEMP:  48; 6HR MAX TEMP:  53; 6HR PCP: TRACE;

BAUDETTE       FAIR      48  47  96 W5        29.91R
6HR MIN TEMP:  48; 6HR MAX TEMP:  51; 6HR PCP:  0.02;

WASKISH        CLOUDY    54  46  76 W9        29.92S
CROOKSTON      PTSUNNY   48  46  93 NW6       29.99R
STEPHEN NDAWN    N/A     52  46  82 NW14        N/A
GREENBUSH NDAW   N/A     50  46  87 W8          N/A
$$
  *****  WEATHER ACROSS CENTRAL AND WEST MINNESOTA  *****

CITY           SKY/WX    TMP DP  RH WIND       PRES   REMARKS
FOSSTON        CLOUDY    48  43  81 W8        29.97R
BEMIDJI        CLOUDY    50  43  77 W10       29.94S
PARK RAPIDS    FAIR      49  40  71 W8        29.97R
6HR MIN TEMP:  43; 6HR MAX TEMP:  52;

ELBOW LAKE     CLOUDY    49  42  76 NW9       30.04R
6HR MIN TEMP:  43; 6HR MAX TEMP:  53;

WADENA         PTSUNNY   50  43  76 W6        29.99R
DETROIT LAKES  FAIR      50  41  71 W8        30.00S
MOORHEAD       FAIR      52  43  71 W13G21    30.01S
FERGUS FALLS   CLOUDY    48  43  81 NW6       30.01S
MORRIS MN      PTSUNNY   52  43  71 W14       30.04S
STAPLES        FAIR      50  41  71 W10       29.99R
$$
  *****  WEATHER ELSEWHERE ACROSS MINNESOTA  *****

CITY           SKY/WX    TMP DP  RH WIND       PRES   REMARKS
DULUTH         CLOUDY    53  48  83 W10       29.88R
6HR MIN TEMP:  51; 6HR MAX TEMP:  53;

INTRNTL FALLS  CLOUDY    52  49  89 W7        29.88R
6HR MIN TEMP:  52; 6HR MAX TEMP:  53; 6HR PCP: TRACE;

ELY            CLOUDY    52  50  93 W9        29.86R
CLOQUET        CLOUDY    52  43  71 W9        29.91R
WHEATON        PTSUNNY   52  41  66 W9        30.06F
BRAINERD       CLOUDY    51  42  71 W8        29.97R
6HR MIN TEMP:  51; 6HR MAX TEMP:  56;

HIBBING        CLOUDY    50  49  96 W9        29.90R
6HR MIN TEMP:  50; 6HR MAX TEMP:  52;

ALEXANDRIA     FAIR      50  42  74 W10       30.03R
6HR MIN TEMP:  48; 6HR MAX TEMP:  54;

SAINT CLOUD    FAIR      53  44  71 W9        30.00R
6HR MIN TEMP:  49; 6HR MAX TEMP:  58;

MINNEAPOLIS    PTSUNNY   56  44  64 W13       30.00R
6HR MIN TEMP:  55; 6HR MAX TEMP:  62;

$$

  *****  WEATHER ACROSS SOUTH DAKOTA  *****

CITY           SKY/WX    TMP DP  RH WIND       PRES   REMARKS
SIOUX FALLS    FAIR      51  44  77 VRB5      30.12R
6HR MIN TEMP:  44; 6HR MAX TEMP:  53;

BROOKINGS      FAIR      46  42  86 SW5       30.10R
WATERTOWN      CLOUDY    50  43  77 W9        30.08R
6HR MIN TEMP:  44; 6HR MAX TEMP:  53;

HURON          FAIR      49  41  74 SW9       30.11S
6HR MIN TEMP:  44; 6HR MAX TEMP:  49;

SISSETON         N/A     53  41  63 NW12      30.05S
ABERDEEN       PTSUNNY   49  42  77 NW6       30.09R
6HR MIN TEMP:  39; 6HR MAX TEMP:  52; 6HR PCP: TRACE;

MITCHELL       PTSUNNY   51  40  65 W9        30.14R
PIERRE         FAIR      49  37  63 W10       30.15R
6HR MIN TEMP:  43; 6HR MAX TEMP:  54;

MOBRIDGE       MOCLDY    51  37  58 NW9       30.13R
RAPID CITY     FAIR      49  31  49 NW6       30.25R
6HR MIN TEMP:  43; 6HR MAX TEMP:  49;

$$

  *****  SOME WEATHER IN NEARBY STATES *****

CITY           SKY/WX    TMP DP  RH WIND       PRES   REMARKS
GLASGOW MT     FAIR      43  33  68 E7        30.27R
6HR MIN TEMP:  41; 6HR MAX TEMP:  54;

GREAT FALLS MT FAIR      44  38  79 SW8       30.33R
6HR MIN TEMP:  44; 6HR MAX TEMP:  57;

CHEYENNE WY    CLOUDY    51  31  46 N3        30.34R
6HR MIN TEMP:  50; 6HR MAX TEMP:  54;

SCOTTSBLUFF NE CLOUDY    55  39  54 CALM      30.30R
6HR MIN TEMP:  53; 6HR MAX TEMP:  57;

OMAHA NE       FAIR      55  48  77 N3        30.16R
6HR MIN TEMP:  52; 6HR MAX TEMP:  60;

DES MOINES IA  FAIR      57  46  66 W7        30.09R
6HR MIN TEMP:  54; 6HR MAX TEMP:  62;

DAVENPORT IA   FAIR      58  53  84 W13       30.00R
6HR MIN TEMP:  56; 6HR MAX TEMP:  61;

CHICAGO IL     FAIR      63  55  75 W10       29.91R
6HR MIN TEMP:  61; 6HR MAX TEMP:  66;

EAU CLAIRE WI  FAIR      54  50  86 W10       29.93S
6HR MIN TEMP:  52; 6HR MAX TEMP:  59; 6HR PCP:  0.01;

LA CROSSE WI   FAIR      63  51  65 NW9       29.95R
6HR MIN TEMP:  59; 6HR MAX TEMP:  68;

$$

  *****  SOME NATIONAL WEATHER *****

CITY           SKY/WX    TMP DP  RH WIND       PRES   REMARKS
LA GUARDIA NY  RAIN      71  71 100 NW7       29.59R FOG
6HR MIN TEMP:  71; 6HR MAX TEMP:  78; 6HR PCP:  0.92;

RALEIGH NC     PTSUNNY   78  73  84 W9        29.92R
6HR MIN TEMP:  77; 6HR MAX TEMP:  80; 6HR PCP:  0.01;

ATLANTA GA     CLOUDY    73  72  96 SW6       30.01R
6HR MIN TEMP:  72; 6HR MAX TEMP:  73;

NEW ORLEANS LA HVY RAIN  79  78  97 W5        30.03R FOG
6HR MIN TEMP:  78; 6HR MAX TEMP:  80; 6HR PCP:  0.02;

OKLAHOMA CITY  CLOUDY    71  50  47 E10       30.15R
6HR MIN TEMP:  70; 6HR MAX TEMP:  73;

ALBUQUERQUE NM FAIR      68  51  54 E18       30.23R
6HR MIN TEMP:  68; 6HR MAX TEMP:  74;

SALT LAKE CITY FAIR      62  40  44 S3        30.17R
6HR MIN TEMP:  61; 6HR MAX TEMP:  71;

LOS ANGELES CA CLOUDY    63  61  93 N5        29.87F FOG
6HR MIN TEMP:  61; 6HR M



USA.gov is the U.S. government's official web portal to all federal, state and local government web resources and services.